Weather Roundup
Issued by NWS Chicago, IL

Home | Current Version | Previous Version | Text Only | Print | Product List | Glossary On
Versions: 1 2 3 4 5 6 7 8 9 10 11 12 13 14 15 16 17 18 19 20 21 22 23 24 25 26 27 28 29 30 31 32 33 34 35 36 37 38 39 40 41 42 43 44 45 46 47 48 49 50
000
NZUS59 KLOT 260409
HRRLOT

CHICAGO AREA WEATHER ROUNDUP
NATIONAL WEATHER SERVICE CHICAGO/ROMEOVILLE IL
1100 PM CDT SUN JUN 25 2017

NOTE: "FAIR" INDICATES FEW OR NO CLOUDS BELOW 12,000 FEET WITH NO
SIGNIFICANT WEATHER AND/OR OBSTRUCTIONS TO VISIBILITY.

* THESE STATIONS ARE NOT UNDER NWS QUALITY CONTROL. THEY ALSO MAY NOT
  REPORT WEATHER SUCH AS PRECIPITATION OR FOG.

ILZ005-006-012>014-019>023-260500-
NORTHEAST ILLINOIS

CITY           SKY/WX    TMP DP  RH WIND       PRES   REMARKS
OHARE          MOCLDY    62  49  62 W9        30.11R
MIDWAY         PTCLDY    62  49  62 W10       30.11S
AURORA         MOCLDY    59  50  72 W8        30.13S
LANSING*       PTCLDY    60  47  62 W8        30.12S
JOLIET*        PTCLDY    61  51  70 W3        30.13S
WAUKEGAN       CLOUDY    57  53  86 VRB5      30.09F
DUPAGE AIRPORT PTCLDY    58  50  75 W5        30.11S
WHEELING       CLOUDY    57  54  89 NW7       30.13R
MORRIS*        CLEAR     56  49  78 W7        30.12F
LEWIS AIRPORT* CLEAR     59  47  64 W8        30.12F
NORTHERLY ISL    N/A     63  48  58 W7          N/A
$$

WIZ051-052-058>065-066-070>072-260500-
SOUTHEAST WISCONSIN

CITY           SKY/WX    TMP DP  RH WIND       PRES   REMARKS
MILWAUKEE      MOCLDY    59  54  83 W8        30.08F
KENOSHA*       MOCLDY    58  51  78 W10       30.10S
RACINE*        CLOUDY    57  53  86 W7        30.10S
WAUKESHA       CLEAR     52  50  93 W8        30.10S
WEST BEND      PTCLDY    54  52  94 W7        30.07F
$$

INZ001>003-010>013-019-020-260500-
NORTHWEST INDIANA

CITY           SKY/WX    TMP DP  RH WIND       PRES   REMARKS
GARY*          CLEAR     62  47  57 W9        30.11F
MICHIGAN CITY* NOT AVBL
RENSSELAER*    NOT AVBL
VALPARAISO     CLEAR     60  49  66 W8        30.11S
$$

LMZ740>746-260500-
SOUTHERN LAKE MICHIGAN

STATION/POSITION TIME  SKY/WX   TEMP WIND        PRES    VSBY
                                AIR  DIR/SP/G
                 (UTC)          (F)  (DEG/KT/KT) (MB)    (MI)
HARRISON CRIB    0310            65  290/ 18/ 20   N/A
BURNHAM HARBOR   0400            63                N/A
CALUMET HARBOR   0342            63  250/  3/  6 1018.9F
BURNS HARBOR     0340            65  290/ 17/ 21 1019.3S
MICHIGAN CITY    0340            64  280/ 22/ 25   N/A
$$

ABBREVIATIONS USED IN REMARKS
   TC - TEMPERATURE IN CELSIUS
  WCI - WIND CHILL INDEX
   HX - HEAT INDEX
  VSB - VISIBILITY
$$




USA.gov is the U.S. government's official web portal to all federal, state and local government web resources and services.